Regional Weather Roundup
Issued by NWS

Home | Current Version | Previous Version | Text Only | Print | Product List | Glossary On
Versions: 1 2 3 4 5 6 7 8 9 10 11 12 13 14 15 16 17 18 19 20 21 22 23 24 25 26 27 28 29 30 31 32 33 34 35 36 37 38 39 40 41 42 43 44 45 46 47 48 49 50
000
ASUS43 KOAX 031010
RWRNE

WEATHER ROUNDUP FOR NEBRASKA
NATIONAL WEATHER SERVICE OMAHA NE
500 AM CDT TUE AUG 03 2021

NOTES: SATELLITE DATA IS BEING USED TO AUGMENT CLOUD COVER ABOVE
       12000 FEET.
       "FAIR" INDICATES FEW OR NO CLOUDS BELOW 12,000 FEET WITH NO
       SIGNIFICANT WEATHER AND/OR OBSTRUCTIONS TO VISIBILITY.


NEZ001>004-019>022-054>056-031100-
NEBRASKA PANHANDLE

CITY           SKY/WX    TMP DP  RH WIND       PRES   REMARKS
SCOTTSBLUFF    CLEAR     64  48  56 E5        30.10S
ALLIANCE       CLEAR     58  51  78 CALM      30.09F
CHADRON        CLEAR     57  46  66 SW9       30.07R
GORDON         CLEAR     54  52  91 CALM      30.08F
KIMBALL        CLEAR     60  49  65 SW8       30.16S
SIDNEY         CLEAR     58  51  78 S7        30.12S
$$

NEZ057>060-069>072-079>082-031100-
SOUTHWEST NEBRASKA

CITY           SKY/WX    TMP DP  RH WIND       PRES   REMARKS
NORTH PLATTE   CLEAR     59  53  80 E9        30.09F
IMPERIAL       CLEAR     61  52  72 SW7       30.09F
LEXINGTON      PTCLDY    60  55  83 SE6       30.13S
MCCOOK         CLEAR     60  51  72 E7        30.10S
OGALLALA       CLEAR     60  54  78 E6        30.09S
$$

NEZ005>010-023>029-035>040-094-031100-
NORTH CENTRAL NEBRASKA

CITY           SKY/WX    TMP DP  RH WIND       PRES   REMARKS
VALENTINE      CLEAR     65  54  67 SE6       30.08F
AINSWORTH      CLEAR     62  56  80 S10       30.10S
BROKEN BOW     MOCLDY    62  56  80 SE7       30.12S
O`NEILL        MOCLDY    59  55  88 SE5       30.13S
ORD            PTCLDY    61  57  87 CALM      30.11F
THEDFORD       CLEAR     61  54  76 SE5       30.10F
$$

NEZ041-046>049-061>064-073>077-083>087-031100-
SOUTH CENTRAL NEBRASKA

CITY           SKY/WX    TMP DP  RH WIND       PRES   REMARKS
GRAND ISLAND   CLEAR     62  55  77 SE7       30.14S
AURORA         MOCLDY    59  56  91 CALM      30.14F
HASTINGS       CLEAR     63  56  78 S9        30.14S
HEBRON         CLEAR     56  55  95 CALM      30.14S
HOLDREGE       PTCLDY    60  56  87 SE5       30.13S
KEARNEY        MOCLDY    60  57  89 SE5       30.14S
YORK           MOCLDY    59  57  94 CALM      30.14S
$$

NEZ011>018-030>034-042>045-031100-
NORTHEAST NEBRASKA

CITY           SKY/WX    TMP DP  RH WIND       PRES   REMARKS
NORFOLK        CLEAR     59  54  83 CALM      30.13F
ALBION         CLEAR     58  57  97 CALM      30.14F
BLAIR          CLEAR     62  56  81 CALM      30.13S
COLUMBUS       CLEAR     57  57 100 CALM      30.15S
FREMONT        CLEAR     61  57  89 CALM      30.14S
TEKAMAH        FOG       55  53  93 CALM      30.13S VSB 1/4
WAYNE          CLEAR     54  52  95 CALM      30.14R FOG
$$

NEZ050>053-065>068-078-088>093-031100-
SOUTHEAST NEBRASKA

CITY           SKY/WX    TMP DP  RH WIND       PRES   REMARKS
LINCOLN        CLEAR     58  54  86 N3        30.15S
OMAHA EPPLEY   PTCLDY    62  59  90 CALM      30.13F
BEATRICE       CLEAR     53  51  92 CALM      30.14S
FALLS CITY     CLEAR     55  54  96 CALM      30.13S FOG
NEBRASKA CITY  CLEAR     60  60 100 CALM      30.14S
PLATTSMOUTH    CLEAR     61  58  90 CALM      30.14S
$$

NEZ044-045-051>053-067-031100-
OMAHA AREA

CITY           SKY/WX    TMP DP  RH WIND       PRES   REMARKS
OMAHA EPPLEY   PTCLDY    62  59  90 CALM      30.13F
BLAIR          CLEAR     62  56  81 CALM      30.13S
FREMONT        CLEAR     61  57  89 CALM      30.14S
MILLARD        CLEAR     61  58  91 CALM      30.13F
OFFUTT AFB     CLEAR     59  58  95 CALM      30.15F
PLATTSMOUTH    CLEAR     61  58  90 CALM      30.14S
WAHOO          CLEAR     56  56 100 CALM      30.14S FOG
$$



USA.gov is the U.S. government's official web portal to all federal, state and local government web resources and services.